Regional Weather Roundup
Issued by NWS

Home | Current Version | Previous Version | Text Only | Print | Product List | Glossary On
Versions: 1 2 3 4 5 6 7 8 9 10 11 12 13 14 15 16 17 18 19 20 21 22 23 24 25 26 27 28 29 30 31 32 33 34 35 36 37 38 39 40 41 42 43 44 45 46 47 48 49 50
000
ASUS43 KBIS 020410
RWRND

NORTH DAKOTA REGIONAL WEATHER ROUNDUP
NATIONAL WEATHER SERVICE BISMARCK ND
1100 PM CDT SAT AUG 01 2015

NOTE: "FAIR" INDICATES FEW OR NO CLOUDS BELOW 12,000 FEET WITH NO
SIGNIFICANT WEATHER AND/OR OBSTRUCTIONS TO VISIBILITY.


NDZ001>003-009>011-017-020500-
NORTHWEST NORTH DAKOTA

CITY           SKY/WX    TMP DP  RH WIND       PRES   REMARKS
WILLISTON      CLEAR     75  55  49 N16       29.83R
MINOT          CLEAR     74  56  53 SW8       29.70R
MINOT AFB      CLEAR     71  62  73 N21       29.69R
$$

NDZ018>021-031>035-040>046-020500-
SOUTHWEST NORTH DAKOTA

CITY           SKY/WX    TMP DP  RH WIND       PRES   REMARKS
BISMARCK       PTCLDY    72  58  61 CALM      29.73R
DICKINSON      CLEAR     64  44  48 W7        29.82R
GARRISON         N/A     67  57  70 W7        29.71S
HETTINGER ARPT CLEAR     66  47  50 CALM      29.86R
$$

NDZ004>008-012>016-024-026-027-054-020500-
NORTHEAST NORTH DAKOTA

CITY           SKY/WX    TMP DP  RH WIND       PRES   REMARKS
GRAND FORKS    PTCLDY    69  62  78 S6        29.66F
GRND FRKS AFB  PTCLDY    66  61  84 SW2       29.67
DEVILS LAKE    MOCLDY    72  61  68 SE5       29.69R
$$

NDZ022-023-025-028>030-036>039-047>053-020500-
SOUTHEAST NORTH DAKOTA

CITY           SKY/WX    TMP DP  RH WIND       PRES   REMARKS
FARGO          CLEAR     69  65  86 SE5       29.70F
JAMESTOWN      CLEAR     71  66  84 SE7       29.69F
$$



USA.gov is the U.S. government's official web portal to all federal, state and local government web resources and services.